Retour au catalogue

COSMOS 539

ActifMilitaireLEO
NORAD 6319·PAYLOAD·🇷🇺 Russia

Lancé Dec 21, 1972 depuis Plesetsk Cosmodrome

Loading…

Prochains Passages (prochaines 24 heures)

TLE

FraisSource: Space-Track

Époque: Sep 14, 2026, 11:07 UTC

1 06319U 72102A   26257.46325922  .00000006  00000-0  10652-3 0  9999
2 06319  74.0173 144.6065 0024358 317.1472 216.3307 12.75429675501552

Suivez COSMOS 539 en temps réel avec AllMySat

Download on the App Store